STARLINK-1858 (47145 NORAD) Tracking and Keplerian Element Data

This shows tracking and keplerian element data for the satellite.

Feedback or suggestion? Click here.




ElementValue
Catalog47145
NameSTARLINK-1858
Epoch Orbit177
Epoch Day15.91667824
Epoch Year2021
RAAN98.5771
Inclination53.0545
Eccentricity0.0002269
Argument of Perigee289.9573
Mean Anonmoly101.6903
Mean Motion15.6278258
Decay Rate-0.00010479
L11 47145U 20088Z 21015.91667824 -.00010479 00000-0 -10861-3 0 9993
L22 47145 53.0545 98.5771 0002269 289.9573 101.6903 15.62782580 1773

Live tracking and technical data element details for STARLINK-1858 (NORAD 47145). STARLINK-1858 can be tracked NOW for your location showing map with azimuth and elevation plus other details from your city location.

Track the satellite on the map from your city or location and see movement details for azimuth, elevation, latitude, longitude, range, height, and movement on the map or in text.







IsCatalogInMostPopularTable: catalog: 47145, numindb: 17
Update: records affected: 1



GetName: 47145 STARLINK-1858

Hit Count: updated at: Sun, 17 Jan 2021 09:19:37 GMT